Regional Weather Roundup
Issued by NWS

Home | Current Version | Previous Version | Text Only | Print | Product List | Glossary Off
Versions: 1 2 3 4 5 6 7 8 9 10 11 12 13 14 15 16 17 18 19 20 21 22 23 24 25 26 27 28 29 30 31 32 33 34 35 36 37 38 39 40 41 42 43 44 45 46 47 48 49 50

000
ASUS43 KFSD 170302
RWRSD

WEATHER ROUNDUP FOR SOUTH DAKOTA
NATIONAL WEATHER SERVICE SIOUX FALLS SD
1000 PM CDT TUE SEP 16 2014

NOTE: "FAIR" INDICATES FEW OR NO CLOUDS BELOW 12,000 FEET WITH NO
SIGNIFICANT WEATHER AND/OR OBSTRUCTIONS TO VISIBILITY.


SDZ001>005-009-010-012>017-170400-
NORTHWEST AND NORTH CENTRAL SOUTH DAKOTA

CITY           SKY/WX    TMP DP  RH WIND       PRES   REMARKS
FAITH            N/A     66  49  54 SE10      29.92S
MOBRIDGE       CLEAR     62  53  72 E12       29.88S
$$

SDZ012>016-024>037-041>051-057-063-072>074-170400-
SOUTHWEST AND SOUTH CENTRAL SOUTH DAKOTA

CITY           SKY/WX    TMP DP  RH WIND       PRES   REMARKS
RAPID CTY ARPT CLEAR     56  47  71 NW5       29.96R
PIERRE         MOCLDY    59  50  72 NE3       29.89S
CUSTER         PTCLDY    56  43  61 N5        30.11R
ELLSWORTH AFB  CLEAR     65  49  56 W3        29.96R
PHILIP         CLEAR     62  52  69 E5        29.91R
PINE RIDGE     CLEAR     58  50  75 NE6       29.96R
WINNER         FAIR      62  55  77 S5        29.92R
$$

SDZ004>011-016>023-039-040-170400-
NORTHEAST SOUTH DAKOTA

CITY           SKY/WX    TMP DP  RH WIND       PRES   REMARKS
ABERDEEN       CLEAR     53  51  93 E5        29.91S
WATERTOWN      CLOUDY    60  50  69 SE10      29.95S
SISSETON         N/A     60  54  80 S5        29.93R
$$

SDZ017-020-022-023-036>040-048>070-170400-
SOUTHEAST SOUTH DAKOTA

CITY           SKY/WX    TMP DP  RH WIND       PRES   REMARKS
SIOUX FALLS    CLOUDY    62  49  62 S10       29.97S
HURON          CLEAR     62  54  74 S9        29.91S
CHAMBERLAIN    PTCLDY    59  56  88 SE5       29.90S
MITCHELL       CLEAR     60  54  80 SE9       29.93S
YANKTON        CLEAR     59  50  72 SE9       29.96F
$$

ABBREVIATIONS USED IN REMARKS
   TC - TEMPERATURE IN CELSIUS
  WCI - WIND CHILL INDEX
   HX - HEAT INDEX
  VSB - VISIBILITY



USA.gov is the U.S. government's official web portal to all federal, state and local government web resources and services.